This demonstration page uses our WeatherBlox Daily Observations layout. Learn more.

Left ArrowRight Arrow

34.02893, -84.19858

Hourly Observations for December 7, 2018

Temp ( °F °C ) Dew Point ( °F °C ) Humidity (%) Winds ( mph kmh ) Pressure ( in mb ) Visibility ( mi km ) Precip ( " mm )
12:53 am 00:53 Mostly Clear 37 2.8 25 -3.9 62 62 NNW 3 6 30.38 1029 10 16 0.00 0.00
1:53 am 01:53 Clear 35 1.7 26 -3.3 70 70 Calm 30.38 1029 10 16 0.00 0.00
2:53 am 02:53 Clear 34 1.1 28 -2.2 79 79 Calm 30.38 1029 10 16 0.00 0.00
3:53 am 03:53 Mostly Cloudy 36 2.2 29 -1.7 76 76 Calm 30.38 1029 10 16 0.00 0.00
4:53 am 04:53 Cloudy 39 3.9 27 -2.8 62 62 WNW 5 7 30.38 1029 10 16 0.00 0.00
5:53 am 05:53 Cloudy 40 4.4 26 -3.3 58 58 NW 3 6 30.40 1029 10 16 0.00 0.00
6:53 am 06:53 Cloudy 41 5 26 -3.3 55 55 NW 5 7 30.42 1030 10 16 0.00 0.00
7:53 am 07:53 Cloudy 42 5.6 26 -3.3 53 53 NW 6 9 30.43 1031 10 16 0.00 0.00
8:53 am 08:53 Cloudy 42 5.6 27 -2.8 55 55 NNW 5 7 30.45 1031 10 16 0.00 0.00
9:53 am 09:53 Cloudy 42 5.6 30 -1.1 62 62 NW 7 11 30.49 1032 10 16 0.00 0.03
10:53 am 10:53 Cloudy 43 6.1 30 -1.1 60 60 NW 3 6 30.48 1032 10 16 0.00 0.00
11:53 am 11:53 Cloudy 43 6.1 32 0 65 65 NW 3 6 30.46 1031 10 16 0.00 0.03
12:53 pm 12:53 Cloudy 44 6.7 34 1.1 68 68 NW 3 6 30.44 1031 10 16 0.00 0.03
1:53 pm 13:53 Cloudy 45 7.2 35 1.7 68 68 Calm 30.42 1030 10 16 0.00 0.03
2:53 pm 14:53 Mostly Cloudy 46 7.8 36 2.2 68 68 Calm 30.39 1029 N/A 0.00 0.00
3:53 pm 15:53 Cloudy with Light Rain 45 7.2 37 2.8 74 74 Calm 30.39 1029 N/A 0.00 0.03
4:53 pm 16:53 Cloudy with Light Rain 45 7.2 39 3.9 80 80 WSW 3 6 30.39 1029 N/A 0.00 0.03
5:53 pm 17:53 Cloudy 44 6.7 39 3.9 83 83 W 3 6 30.40 1029 10 16 0.01 0.25
6:53 pm 18:53 Cloudy 44 6.7 39 3.9 83 83 Calm 30.40 1030 10 16 0.00 0.00
7:53 pm 19:53 Cloudy 44 6.7 40 4.4 85 85 NNW 3 6 30.41 1030 9 14 0.00 0.00
8:53 pm 20:53 Cloudy 44 6.7 40 4.4 85 85 Calm 30.40 1029 9 14 0.00 0.00
9:01 pm 21:01 Cloudy 44 6.7 40 4.4 85 85 ESE 3 6 30.39 1029 9 14 0.00 0.00
9:53 pm 21:53 Cloudy 44 6.7 40 4.4 85 85 Calm 30.40 1030 8 13 0.00 0.00
10:06 pm 22:06 Cloudy 44 6.7 40 4.4 85 85 Calm 30.39 1029 8 13 0.00 0.00
10:40 pm 22:40 Cloudy 44 6.7 41 5 89 89 Calm 30.39 1029 8 13 0.00 0.00
10:53 pm 22:53 Cloudy 44 6.7 41 5 89 89 Calm 30.41 1030 N/A 0.00 0.00
11:13 pm 23:13 Cloudy 44 6.7 41 5 89 89 Calm 30.42 1030 8 13 0.00 0.00
11:53 pm 23:53 Cloudy 44 6.7 41 5 89 89 NNE 6 9 30.39 1029 8 13 0.00 0.00

Powered by AerisWeather